Wind_Speed
56 56 56 56 54 53 51 50 46 48 45 47 46 43 43 44 43 42 39 38 36 36 40 41 38 36 35 35 33 32 31 31 30 31 30 30 31 31 31 33 34 35 33 31
62 63 63 62 62 63 62 59 55 56 54 55 53 54 52 50 50 50 51 49 46 44 42 40 39 37 38 39 39 39 37 36 35 34 34 34 33 32 30 30 27 24 24 27
69 69 70 69 67 67 68 67 65 64 61 59 61 58 60 59 56 56 56 57 56 53 50 47 44 41 36 36 36 37 36 37 37 37 38 39 38 36 35 34 30 29 33 34
73 75 74 70 71 70 69 70 71 72 71 69 65 66 64 65 65 61 60 61 61 59 58 56 52 48 43 40 39 37 35 35 36 36 36 36 36 36 37 38 38 38 39 40
75 76 74 74 75 75 74 71 72 74 75 75 73 72 72 70 70 69 65 65 64 62 62 61 58 56 53 48 46 45 43 45 44 43 42 42 40 39 39 39 39 41 42 44
82 82 79 78 82 82 83 77 83 81 81 82 81 80 76 75 75 75 75 70 70 67 64 62 59 59 57 56 51 51 51 51 51 50 47 45 44 43 42 42 42 43 44 45
91 92 88 88 92 94 93 90 92 93 93 92 91 89 88 82 81 82 81 80 77 75 70 66 62 59 59 58 58 56 56 58 56 54 52 50 48 47 46 47 47 46 46 46
100 100 99 98 101 103 103 102 102 103 105 104 101 100 98 95 92 88 87 88 85 81 77 74 68 65 63 60 58 61 59 57 56 57 56 52 51 51 52 52 51 49 47 44
96 98 99 97 96 96 97 98 100 100 102 103 104 106 106 103 101 99 95 94 93 89 84 80 77 72 68 64 62 65 65 61 59 58 57 55 54 55 55 54 52 47 45 45
100 97 95 94 94 95 95 95 97 99 100 101 104 105 103 103 103 104 103 101 100 98 92 86 81 78 74 70 65 66 64 62 62 59 60 59 56 56 54 51 49 51 52 50
89 90 91 93 93 90 87 89 90 91 90 94 97 100 102 98 98 104 104 106 106 104 99 92 87 83 78 72 69 68 63 61 62 60 55 56 55 53 51 51 53 54 52 50
92 93 89 84 85 81 76 77 77 73 68 69 74 84 91 96 96 96 102 105 105 107 105 100 93 86 80 77 73 67 61 59 62 55 54 48 50 57 60 56 55 56 54 52
84 81 77 75 72 71 64 64 65 59 58 61 63 69 74 79 84 89 94 98 105 106 108 105 99 92 84 81 74 73 66 62 61 50 68 64 62 59 61 61 63 61 60 60
78 72 67 66 64 64 58 55 54 53 50 53 58 59 65 70 72 78 86 93 97 105 107 104 104 97 91 86 81 76 74 68 70 63 63 58 56 58 62 57 64 65 65 61
66 61 58 59 56 56 51 48 47 44 45 45 48 52 56 62 67 70 75 83 92 96 99 102 103 102 94 88 84 80 74 74 73 73 70 73 65 67 65 64 65 60 67 69
54 50 49 49 52 49 45 42 41 38 35 37 41 42 46 52 60 64 66 70 80 88 92 95 97 93 92 86 86 86 86 76 72 77 70 73 67 71 64 62 69 70 69 66
44 42 41 43 45 44 39 38 37 34 30 33 36 38 44 48 51 56 58 59 63 74 84 89 88 91 84 82 87 95 94 86 83 85 86 80 85 80 80 70 69 65 68 72
35 36 33 36 39 40 38 35 35 35 33 33 33 36 41 47 47 47 49 51 51 56 65 75 82 84 85 89 88 86 93 95 96 94 90 91 92 86 84 79 75 75 71 70
27 28 26 29 33 34 33 32 31 33 33 30 28 30 33 39 42 43 42 41 38 39 45 60 67 75 77 81 85 88 87 90 96 101 100 97 95 91 91 85 83 80 74 71
20 20 23 23 24 28 29 31 31 31 28 27 27 29 33 33 33 35 30 29 30 31 25 31 43 61 70 72 82 85 83 86 92 92 97 103 100 95 92 83 84 81 80 80
16 16 17 19 22 25 25 24 25 23 24 22 22 21 23 26 30 31 41 47 39 36 40 46 42 49 62 69 75 74 75 79 81 82 85 90 97 96 96 89 85 85 90 88
13 12 13 14 15 15 15 16 18 17 17 17 16 20 25 30 44 52 48 38 37 41 40 38 37 38 50 60 68 72 68 67 69 69 75 79 82 84 84 81 81 78 78 79
8 6 6 7 10 8 6 7 10 9 10 12 16 26 37 51 59 52 39 39 27 26 39 35 33 30 43 50 57 64 69 70 67 66 58 58 58 63 64 65 62 65 72 70
11 4 5 4 8 6 2 5 9 12 15 19 26 41 57 56 55 40 34 27 39 39 39 41 44 47 44 46 51 53 57 61 59 58 59 57 51 62 63 63 60 59 60 64
18 17 11 7 9 13 16 19 25 28 29 33 38 57 61 55 37 37 34 33 34 34 32 32 37 44 48 44 46 53 56 59 62 62 61 64 62 63 65 66 64 68 67 63
21 20 16 13 17 25 31 37 37 37 38 36 50 64 54 44 39 40 35 33 33 35 31 34 35 43 44 45 50 50 50 50 57 63 60 66 72 69 64 64 67 63 63 69
25 24 21 19 18 26 35 35 37 37 42 43 40 45 54 48 36 36 36 35 44 44 44 39 41 44 45 49 46 53 54 54 60 62 60 59 64 65 65 66 69 69 72 73
Wind_Direction
266 266 268 270 267 266 266 265 261 265 265 260 266 262 256 257 260 262 259 258 253 255 258 255 254 257 260 263 264 266 267 270 275 279 281 281 282 283 286 287 284 284 288 291
267 267 266 267 269 268 265 262 259 262 263 263 261 264 261 257 256 257 260 260 260 258 254 254 255 251 254 257 261 264 266 270 273 277 280 280 282 284 286 290 287 279 278 289
263 263 264 266 266 266 266 265 260 259 257 257 260 258 260 259 256 254 256 257 259 259 259 261 259 256 255 258 260 262 264 267 269 271 272 273 275 276 281 284 285 274 271 277
261 262 263 262 262 261 261 263 264 262 260 258 254 256 253 255 257 254 253 252 254 256 259 259 259 260 258 259 260 259 258 259 263 265 267 269 271 274 275 275 276 276 276 278
262 261 261 263 262 261 260 259 260 260 261 260 257 254 253 252 251 255 253 254 254 253 253 256 258 260 260 256 255 257 259 261 260 262 264 266 270 274 275 275 276 277 277 279
266 265 264 263 263 262 261 260 259 258 257 258 259 257 253 251 252 251 251 249 251 252 252 253 254 256 260 261 258 257 258 261 262 264 267 271 274 277 280 280 279 279 279 280
270 270 269 268 268 266 264 263 262 261 259 257 256 255 256 252 249 250 250 249 248 249 249 250 251 252 254 258 261 260 260 262 265 269 272 275 277 277 278 280 280 282 283 283
270 270 269 267 265 265 265 264 263 263 261 258 255 254 253 252 250 246 247 249 248 247 247 248 248 249 250 253 258 263 263 264 267 270 271 275 278 278 278 280 283 284 282 281
269 270 270 268 268 268 267 266 264 260 259 258 256 254 252 248 246 247 244 243 246 247 245 244 245 246 249 250 254 259 262 262 262 265 270 275 276 276 280 282 282 282 279 278
269 270 273 273 272 270 269 267 264 261 258 257 255 254 250 247 248 244 242 243 242 243 244 243 243 244 245 247 251 254 258 267 263 267 269 273 272 275 277 278 279 281 281 282
274 274 274 275 274 271 269 268 266 263 261 257 254 251 250 246 242 242 241 240 241 243 241 240 240 242 243 246 248 249 252 251 263 263 262 267 272 271 270 270 275 277 280 281
274 275 275 275 274 273 270 267 266 265 262 257 254 250 247 246 243 238 238 238 239 239 241 239 237 237 240 244 242 244 248 253 259 265 267 267 275 275 276 278 278 280 280 280
273 273 273 273 271 269 268 266 268 267 262 257 251 251 249 244 242 240 237 236 236 236 236 238 238 235 235 239 242 244 243 242 246 257 262 263 265 269 273 273 272 278 280 281
273 272 270 266 265 266 270 269 270 268 261 256 253 245 245 246 242 238 237 235 234 234 234 234 236 234 233 233 236 239 242 243 242 246 245 254 256 266 265 262 271 279 282 276
270 268 264 263 261 263 265 268 270 266 261 255 251 248 243 244 244 241 237 234 233 233 232 232 233 233 230 232 235 233 237 238 240 242 251 252 263 256 257 261 264 272 273 272
265 263 260 257 257 257 262 266 267 260 255 253 250 245 243 240 242 242 239 234 232 231 231 230 231 232 229 227 230 234 232 232 234 235 249 246 250 256 260 260 260 262 266 264
266 261 254 252 253 259 260 263 264 268 263 256 253 248 245 242 239 239 239 237 233 231 230 230 229 229 225 225 226 228 230 230 231 233 238 243 249 250 252 256 262 265 265 271
263 259 250 244 249 257 262 265 266 271 268 263 258 249 243 242 240 239 238 235 231 228 228 228 227 227 225 226 227 227 229 230 233 236 237 241 246 249 254 257 261 267 270 271
253 250 245 242 248 255 267 275 272 269 265 259 252 243 237 236 235 233 231 232 228 225 226 229 227 228 226 226 228 230 231 232 235 237 238 242 248 247 254 255 257 261 266 267
248 242 241 244 249 255 265 273 269 264 262 252 242 234 230 224 222 220 215 207 192 176 202 225 228 225 224 225 228 228 230 234 238 240 242 243 246 250 254 255 258 260 263 267
232 239 246 251 260 263 261 254 254 255 253 251 240 230 217 202 195 180 165 160 168 186 203 218 224 221 220 223 228 228 229 233 237 242 244 246 246 249 251 254 257 259 261 266
231 247 266 272 279 274 271 254 244 241 235 226 213 197 181 172 162 159 158 158 183 193 207 209 213 214 219 220 222 226 229 233 238 243 246 251 249 250 252 254 256 257 259 263
214 244 290 298 302 302 277 250 236 220 202 191 173 161 156 153 156 161 162 175 179 213 215 208 212 222 226 219 222 225 226 229 241 246 247 250 249 252 255 256 256 259 262 267
162 159 127 50 343 354 37 129 157 162 150 146 148 154 155 156 161 159 157 163 184 203 226 219 223 228 229 222 220 224 224 224 226 231 236 244 255 253 253 258 262 263 265 271
174 155 162 145 137 152 139 141 136 130 131 137 149 155 160 158 157 163 163 179 197 213 231 227 218 223 226 222 221 225 227 227 235 240 245 248 250 254 260 260 261 266 270 269
188 187 181 173 157 155 149 143 140 141 140 139 159 162 167 168 173 176 174 186 202 216 213 224 233 225 226 224 225 227 230 231 236 238 248 255 254 255 260 266 268 268 269 275
196 192 195 186 176 167 169 161 152 152 147 144 144 168 177 182 184 182 193 206 213 212 220 234 246 246 242 231 238 238 234 235 236 240 247 253 257 260 260 264 269 269 277 286
Height
10877 10879 10880 10883 10888 10892 10898 10902 10907 10908 10912 10907 10912 10915 10916 10917 10917 10917 10919 10921 10923 10925 10926 10930 10933 10936 10937 10938 10940 10941 10943 10943 10943 10944 10945 10946 10945 10946 10945 10944 10943 10942 10941 10941
10860 10861 10863 10867 10868 10871 10875 10882 10890 10892 10896 10894 10895 10898 10902 10904 10906 10906 10906 10908 10911 10913 10914 10917 10920 10925 10926 10929 10930 10932 10933 10934 10935 10935 10935 10936 10937 10937 10937 10937 10936 10936 10937 10936
10840 10840 10842 10850 10850 10852 10855 10859 10866 10871 10876 10877 10876 10882 10882 10885 10889 10891 10894 10893 10894 10898 10901 10904 10908 10912 10917 10919 10922 10923 10924 10924 10925 10926 10927 10928 10929 10930 10930 10930 10930 10930 10929 10930
10821 10818 10823 10831 10830 10834 10838 10840 10843 10846 10852 10857 10858 10857 10863 10866 10869 10873 10876 10877 10880 10884 10887 10890 10894 10898 10903 10907 10910 10913 10914 10915 10916 10917 10918 10919 10919 10919 10920 10921 10921 10922 10922 10921
10795 10797 10805 10808 10806 10810 10815 10824 10824 10822 10824 10829 10834 10838 10841 10846 10849 10852 10859 10861 10864 10869 10873 10876 10880 10883 10887 10892 10896 10898 10900 10901 10904 10906 10908 10908 10909 10910 10911 10911 10911 10912 10912 10911
10768 10771 10780 10784 10781 10785 10787 10802 10793 10798 10803 10805 10808 10812 10821 10827 10830 10832 10834 10841 10842 10849 10856 10861 10866 10869 10872 10876 10882 10884 10886 10887 10889 10892 10894 10896 10897 10897 10898 10899 10899 10900 10900 10899
10734 10738 10750 10752 10749 10748 10755 10766 10764 10767 10771 10777 10782 10788 10791 10802 10808 10810 10813 10816 10821 10826 10835 10842 10850 10855 10858 10861 10864 10869 10873 10874 10876 10879 10881 10883 10885 10885 10886 10886 10886 10887 10887 10887
10704 10707 10714 10716 10714 10716 10720 10728 10729 10729 10731 10739 10749 10756 10763 10769 10777 10786 10791 10792 10796 10805 10814 10822 10829 10835 10839 10845 10852 10852 10856 10860 10863 10865 10868 10869 10870 10870 10870 10871 10872 10874 10874 10875
10676 10670 10669 10677 10683 10684 10686 10687 10687 10692 10693 10699 10704 10715 10722 10735 10745 10753 10761 10768 10773 10781 10791 10799 10808 10817 10823 10828 10835 10835 10837 10843 10847 10851 10854 10855 10855 10854 10856 10857 10859 10860 10861 10862
10641 10645 10645 10644 10644 10643 10646 10648 10645 10646 10649 10656 10662 10669 10681 10696 10706 10718 10729 10737 10744 10754 10765 10776 10787 10795 10803 10812 10818 10821 10823 10827 10831 10835 10839 10842 10842 10841 10840 10842 10844 10845 10846 10848
10620 10617 10613 10609 10607 10606 10606 10604 10604 10606 10613 10615 10622 10627 10633 10649 10666 10678 10690 10703 10713 10723 10737 10753 10763 10773 10784 10797 10804 10806 10810 10814 10817 10820 10821 10826 10826 10825 10826 10828 10829 10830 10831 10833
10589 10584 10583 10578 10571 10576 10579 10573 10573 10576 10580 10582 10585 10588 10598 10610 10625 10641 10653 10667 10681 10693 10706 10722 10738 10753 10767 10773 10782 10792 10798 10802 10803 10805 10807 10810 10810 10809 10809 10811 10813 10813 10815 10817
10558 10556 10557 10551 10549 10544 10552 10550 10548 10554 10556 10554 10558 10563 10571 10582 10595 10610 10622 10637 10649 10661 10675 10691 10710 10728 10745 10752 10765 10771 10778 10783 10789 10794 10794 10793 10794 10794 10795 10795 10797 10800 10798 10800
10527 10530 10530 10527 10527 10524 10529 10531 10531 10531 10533 10535 10536 10544 10549 10556 10567 10580 10592 10606 10620 10631 10647 10663 10678 10697 10718 10732 10741 10751 10759 10766 10768 10769 10771 10773 10774 10777 10778 10780 10780 10782 10782 10782
10500 10504 10506 10505 10508 10507 10513 10514 10513 10513 10515 10518 10520 10525 10533 10537 10543 10551 10562 10574 10587 10601 10620 10634 10649 10665 10691 10710 10721 10729 10734 10739 10744 10748 10752 10754 10755 10759 10764 10766 10767 10764 10764 10767
10479 10483 10485 10488 10487 10491 10496 10498 10498 10496 10500 10503 10505 10509 10514 10518 10521 10527 10537 10548 10560 10574 10591 10608 10624 10643 10666 10682 10695 10704 10708 10715 10725 10729 10734 10732 10737 10742 10744 10747 10748 10749 10749 10748
10461 10464 10469 10471 10473 10476 10482 10483 10485 10486 10489 10490 10493 10496 10497 10499 10505 10510 10518 10529 10543 10555 10568 10584 10603 10619 10638 10652 10661 10671 10681 10694 10700 10705 10709 10711 10713 10721 10725 10729 10729 10732 10733 10735
10446 10449 10454 10458 10461 10464 10466 10470 10473 10473 10475 10477 10480 10481 10481 10483 10490 10499 10506 10515 10526 10540 10552 10564 10580 10594 10613 10626 10636 10646 10656 10669 10673 10677 10689 10690 10692 10704 10704 10711 10714 10715 10719 10720
10436 10439 10444 10449 10452 10454 10455 10456 10458 10459 10458 10460 10462 10464 10467 10471 10478 10486 10495 10505 10518 10528 10537 10548 10564 10578 10593 10606 10617 10626 10638 10646 10649 10654 10662 10672 10676 10685 10687 10693 10697 10700 10701 10704
10430 10433 10437 10441 10445 10445 10446 10446 10444 10443 10445 10446 10447 10449 10454 10461 10469 10477 10487 10498 10510 10518 10526 10537 10548 10561 10574 10586 10590 10606 10619 10626 10627 10637 10644 10649 10657 10665 10671 10673 10677 10682 10687 10686
10425 10429 10432 10434 10436 10436 10435 10434 10434 10433 10434 10435 10437 10441 10448 10455 10463 10473 10481 10493 10503 10512 10517 10524 10536 10546 10557 10568 10579 10593 10601 10607 10612 10620 10625 10630 10643 10648 10651 10653 10660 10665 10668 10669
10422 10425 10427 10427 10427 10426 10426 10426 10425 10425 10426 10427 10430 10436 10443 10452 10461 10470 10481 10493 10498 10502 10513 10523 10530 10538 10546 10556 10566 10575 10586 10593 10599 10604 10612 10613 10624 10629 10634 10639 10643 10647 10649 10650
10420 10422 10424 10424 10423 10422 10421 10420 10420 10421 10422 10427 10430 10436 10443 10453 10464 10473 10480 10486 10497 10504 10509 10520 10526 10531 10536 10545 10554 10564 10575 10583 10588 10593 10598 10601 10606 10612 10618 10622 10625 10627 10628 10631
10418 10420 10423 10423 10423 10420 10419 10419 10421 10423 10425 10429 10435 10443 10448 10456 10466 10472 10480 10487 10495 10501 10504 10512 10519 10525 10532 10539 10547 10554 10562 10570 10572 10577 10584 10589 10594 10599 10604 10606 10608 10609 10612 10614
10415 10417 10421 10422 10422 10423 10423 10425 10426 10428 10431 10435 10442 10451 10455 10460 10467 10473 10478 10487 10492 10496 10500 10505 10512 10517 10525 10532 10540 10545 10552 10558 10562 10568 10572 10576 10580 10584 10587 10589 10591 10594 10595 10598
10411 10415 10417 10421 10422 10423 10426 10429 10429 10431 10435 10440 10445 10451 10457 10460 10466 10472 10476 10484 10490 10492 10496 10501 10505 10513 10519 10524 10530 10535 10540 10547 10551 10556 10560 10560 10566 10570 10572 10574 10576 10578 10580 10581
10407 10411 10414 10417 10421 10423 10426 10429 10432 10436 10440 10443 10448 10454 10459 10463 10467 10472 10479 10482 10484 10490 10493 10497 10500 10504 10509 10516 10522 10526 10530 10534 10538 10543 10546 10548 10551 10554 10557 10558 10561 10560 10561 10562